Theta_e
274 274 274 273 273 272 272 272 272 272 272 272 271 271 272 273 273 274 274 275 277 277 277 277 278 280 282 285 287 288 288 288 288 289 289 289 290 291 293 294 295 297 300 301 305 308 307 307 306 306 306 305 304 304 304 304 305 305 305 305 304 303 304 303 299 293 291 292 294 295 294 295 293 294 293 293 293 294 295 296 298 298 298 299 301
273 273 273 273 272 272 272 272 272 272 271 271 271 271 271 272 273 273 273 274 275 276 276 277 278 279 279 281 284 287 289 289 288 288 288 288 289 291 291 292 293 295 299 301 304 307 307 307 306 305 305 305 304 304 304 304 304 303 304 304 301 302 304 302 298 296 293 289 289 292 293 297 295 292 295 292 292 291 294 294 293 295 297 296 297
273 273 272 272 272 272 272 271 271 271 270 270 270 270 271 271 272 272 273 274 275 275 276 277 277 278 278 280 282 286 288 288 287 287 287 288 288 288 290 291 292 293 296 299 303 306 306 305 305 305 305 305 304 303 303 303 304 303 303 303 302 301 299 300 298 296 293 290 290 291 292 294 296 292 292 293 292 294 294 293 294 292 292 294 296
272 272 272 272 272 272 271 271 271 270 270 270 270 270 270 271 272 272 273 274 274 275 276 276 277 277 278 279 281 285 288 288 288 287 287 287 287 288 288 289 290 292 294 297 302 305 305 305 305 304 304 304 303 303 303 304 303 303 302 301 301 299 299 298 300 298 295 290 288 291 291 293 290 291 292 291 292 293 294 293 291 292 291 292 294
272 271 271 271 271 271 271 271 271 270 270 270 269 270 270 270 271 271 272 272 273 273 274 276 276 277 277 278 279 282 287 288 288 287 287 287 287 287 288 288 289 290 292 295 299 305 305 305 304 304 303 303 301 302 303 302 304 303 302 301 300 300 299 298 297 297 295 293 289 289 291 290 290 291 291 292 291 290 290 291 292 293 292 291 292
271 270 271 270 270 270 270 270 271 270 270 269 269 269 270 270 270 271 271 271 272 273 274 275 276 276 277 277 277 278 281 286 288 287 287 287 287 287 287 288 288 290 291 294 298 304 306 305 304 303 303 302 301 302 302 302 303 302 301 300 300 299 298 296 296 296 296 294 291 288 290 290 290 290 292 293 293 291 290 289 289 290 293 294 292
270 270 270 270 270 270 270 270 270 269 270 269 270 269 269 269 269 270 271 272 272 273 273 274 275 275 276 276 276 277 278 281 285 287 287 287 287 287 287 287 288 289 291 293 297 302 306 306 304 303 303 303 302 302 302 303 303 302 301 301 299 299 297 295 295 294 294 292 291 291 290 290 292 290 290 292 293 294 292 290 290 289 291 294 294
269 269 269 269 269 269 269 270 270 270 270 270 269 269 269 269 269 270 270 270 270 270 271 272 273 274 275 275 276 277 278 279 282 285 286 286 286 286 287 287 287 288 290 293 295 300 305 305 304 303 304 304 303 303 303 303 303 301 302 301 300 298 295 294 293 293 292 291 291 290 291 290 289 289 290 290 291 291 292 293 291 290 291 291 294
268 268 268 268 268 269 269 270 270 269 269 268 268 268 268 269 269 269 269 269 270 271 271 272 272 273 274 275 276 277 278 279 281 284 286 286 286 287 287 287 287 287 288 290 293 297 303 305 304 303 301 299 298 300 301 301 303 299 300 300 297 296 294 293 293 292 292 291 290 291 290 290 290 289 289 291 292 292 291 290 291 292 293 292 291
267 267 266 267 269 269 269 269 269 269 268 268 268 268 268 268 268 268 268 269 269 270 271 271 272 273 274 275 276 277 277 279 281 283 285 285 286 287 287 287 287 287 287 288 291 295 301 304 302 298 296 296 296 297 298 299 299 301 301 298 296 295 294 293 293 293 292 291 290 289 289 290 290 290 290 291 292 291 291 292 290 290 290 289 289
266 266 266 267 268 268 268 268 268 268 267 267 267 266 267 267 267 267 267 268 268 269 270 271 272 273 274 274 275 276 277 278 281 283 285 287 287 287 287 287 287 287 287 288 290 293 299 303 303 297 295 295 296 296 298 298 298 298 298 298 297 296 294 293 292 292 292 291 290 290 291 290 290 291 291 291 291 292 292 292 290 290 290 290 289
265 265 266 267 267 268 268 267 267 267 266 266 266 266 266 266 266 266 267 267 268 269 269 269 270 271 272 273 275 276 277 279 282 283 284 286 288 287 288 288 287 287 287 288 289 292 297 302 302 300 299 299 299 298 297 297 297 297 297 297 296 297 297 295 293 291 292 291 290 290 291 290 289 290 291 291 291 291 292 291 290 291 290 291 291
265 265 266 266 266 267 267 267 266 265 265 265 265 265 265 266 266 266 266 267 268 267 268 269 270 272 273 274 275 276 277 280 283 284 285 286 287 288 288 288 287 287 287 287 289 291 295 300 301 301 301 294 295 299 299 297 295 296 296 296 295 296 297 297 296 294 293 292 291 290 291 291 289 290 291 292 292 290 290 290 290 291 291 292 292
264 265 265 266 266 266 266 265 265 265 265 264 264 264 264 264 265 266 266 266 266 267 268 268 270 271 272 274 275 277 278 281 283 284 285 286 288 288 288 288 288 287 287 287 289 290 294 299 300 299 299 297 298 299 299 298 296 294 294 296 296 295 296 296 295 294 293 293 292 291 292 292 291 292 291 292 291 290 290 290 290 290 290 292 293
263 264 264 265 265 265 264 264 264 264 264 264 264 263 264 264 265 265 266 266 266 266 267 268 269 270 271 274 276 276 277 281 282 283 284 286 288 289 289 289 288 288 288 288 289 291 293 299 300 300 299 297 298 298 298 296 293 293 293 293 294 295 297 296 296 296 295 295 293 294 293 293 294 293 292 292 292 292 292 292 291 291 290 287 287
263 264 264 263 263 263 263 262 262 262 262 263 263 263 263 264 264 265 266 266 267 268 268 270 270 270 271 272 273 275 277 281 282 283 284 286 289 288 288 287 287 287 287 288 289 291 294 298 300 300 299 298 296 296 296 295 293 292 292 292 293 295 296 296 296 296 297 297 296 295 294 294 294 292 292 292 291 289 289 288 288 288 288 289 286
262 262 262 262 262 262 262 261 261 261 261 262 262 262 263 264 264 265 265 266 266 267 268 269 271 272 273 274 275 276 276 279 282 283 284 286 287 287 287 286 286 287 287 288 289 291 294 298 300 300 299 298 296 297 297 295 292 292 292 291 292 293 294 296 295 296 296 296 296 296 296 296 296 295 295 294 291 290 290 289 288 288 288 285 282
262 262 261 261 261 261 261 261 260 260 261 261 262 263 264 264 265 266 265 265 266 267 268 268 270 271 271 272 276 277 278 281 283 284 285 286 286 285 286 286 286 286 287 288 290 292 295 294 296 299 298 298 296 297 297 294 293 292 291 291 290 291 292 293 293 294 294 295 295 295 295 295 295 295 295 294 294 292 291 289 288 289 288 287 284
260 260 260 260 260 260 260 260 260 260 260 261 263 264 264 264 265 266 266 266 267 268 268 268 269 271 272 273 276 278 279 280 283 284 285 287 286 286 286 286 286 286 287 287 289 292 295 294 294 297 298 296 296 297 296 294 293 292 292 291 290 290 291 291 290 290 290 289 290 291 290 292 292 292 291 293 292 291 292 291 289 289 288 287 285
260 260 260 260 260 260 260 260 260 260 261 262 264 265 265 265 266 266 267 267 267 268 269 269 269 270 273 275 277 279 279 280 282 284 285 287 288 287 286 286 286 286 287 287 289 291 294 296 295 297 297 297 296 297 296 295 293 293 292 292 291 291 291 290 290 290 290 290 288 288 289 289 289 289 290 291 291 290 291 290 290 291 290 288 286
259 259 259 259 258 259 260 261 261 262 264 265 265 265 266 267 267 267 267 268 268 268 268 269 270 271 273 275 277 279 280 281 283 285 286 287 288 288 287 286 287 287 287 287 290 292 294 296 297 296 297 296 296 296 296 296 295 293 293 293 293 293 291 290 289 290 290 289 288 288 288 288 289 289 289 289 289 289 290 290 290 291 291 289 287
258 258 258 258 258 259 260 261 262 263 265 265 265 265 266 267 268 269 269 268 268 268 269 270 270 271 273 276 279 280 281 282 282 285 287 288 289 290 288 287 287 287 287 288 291 293 294 296 297 296 296 296 296 296 296 296 295 293 294 295 295 294 291 291 290 290 290 289 288 288 288 288 288 288 288 289 289 289 289 289 290 290 292 291 289
257 257 257 257 258 259 260 261 263 264 265 265 264 264 265 266 267 269 270 269 269 269 270 270 271 272 275 278 280 282 283 284 286 285 287 288 289 290 290 289 289 288 287 288 290 293 295 296 295 295 295 295 295 296 296 296 295 294 295 295 294 293 291 291 290 290 289 289 288 288 287 287 287 287 287 288 288 288 289 289 289 290 290 291 291
256 256 256 257 258 260 261 262 263 264 264 264 264 264 264 265 266 268 270 271 271 271 271 272 273 274 276 279 280 282 283 283 285 286 286 287 288 289 289 290 290 288 288 289 292 294 295 295 295 295 295 295 295 296 296 295 294 295 295 295 293 292 291 290 290 290 289 289 288 288 287 287 287 287 287 288 288 288 288 288 288 289 289 289 289
255 255 256 257 258 260 261 262 263 263 263 263 263 263 263 264 265 267 269 272 273 273 273 275 276 278 280 280 281 282 283 284 284 285 286 287 288 289 289 289 290 290 288 290 292 294 294 295 295 294 294 295 295 295 295 294 295 295 294 293 291 291 291 291 290 290 289 288 288 288 288 288 288 288 288 288 288 288 288 288 288 288 287 283 282
254 255 256 257 259 260 261 262 262 262 263 263 263 263 263 263 264 266 268 270 271 272 274 277 277 279 280 280 281 282 283 284 285 285 286 286 287 288 289 289 289 290 290 290 292 294 294 294 294 294 294 294 294 294 293 294 294 293 293 292 291 291 291 291 290 290 290 289 289 289 289 288 288 287 288 288 287 287 287 287 287 287 286 285 283
254 255 256 257 259 260 261 261 261 261 262 262 262 262 263 263 264 265 267 267 268 269 272 275 279 281 281 282 283 283 284 284 285 286 287 287 288 288 288 288 289 289 289 290 292 293 293 293 293 293 293 293 293 293 293 293 292 292 292 292 292 291 291 291 291 290 290 290 289 289 289 288 288 287 287 287 287 288 288 288 287 287 286 286 286
253 254 256 258 259 260 260 261 261 260 261 261 261 261 261 262 263 264 265 266 266 268 270 273 275 277 280 283 284 284 285 285 286 286 287 288 288 289 288 288 289 290 290 291 292 293 293 292 293 293 293 292 293 293 293 292 292 291 291 291 291 291 290 290 290 291 291 291 290 290 288 288 287 287 287 287 288 288 288 288 287 287 287 287 286
253 254 256 257 258 260 260 260 260 260 260 260 261 261 261 262 262 264 266 267 268 268 269 271 274 275 277 278 279 281 284 285 286 288 288 289 288 288 288 289 290 291 291 293 291 291 292 292 292 292 292 291 291 292 292 291 291 291 290 291 291 290 290 290 290 290 291 290 290 289 288 288 287 287 287 287 287 287 288 287 287 287 286 287 286
253 254 256 257 258 259 259 259 259 259 259 259 259 259 263 267 265 264 264 269 272 273 273 271 273 274 274 276 278 279 281 284 288 288 288 289 290 290 290 291 292 292 292 293 292 291 291 291 291 291 291 291 291 291 291 291 290 290 290 290 290 290 290 290 290 290 290 290 290 289 288 287 287 287 287 287 287 287 287 287 287 287 286 285 286
253 254 255 256 258 259 259 259 259 259 259 258 258 258 258 260 265 268 269 269 270 272 272 274 276 276 274 273 276 280 282 284 287 288 288 289 290 291 291 291 292 293 293 291 291 291 290 290 290 291 291 291 290 290 290 290 290 290 290 290 290 290 289 290 290 290 289 289 289 289 288 288 287 287 287 287 286 286 286 287 287 287 286 286 285
252 253 255 257 258 259 259 258 258 258 258 258 258 257 257 257 258 264 267 268 269 270 271 272 274 274 275 274 275 276 279 281 284 285 287 289 290 290 291 292 293 293 293 293 291 290 291 291 290 290 290 290 290 290 290 290 290 290 289 289 289 290 289 289 290 290 290 289 289 288 288 288 288 287 287 287 286 286 285 285 286 286 286 285 285
252 253 255 257 258 258 258 257 257 257 257 257 257 257 256 256 255 256 258 265 267 268 269 270 271 273 273 273 275 277 278 279 281 282 283 286 289 290 291 292 293 293 293 291 291 290 291 291 290 290 290 290 290 290 290 290 290 290 290 289 289 289 290 290 289 289 289 289 289 289 288 288 288 288 287 287 287 286 285 285 286 286 285 285 285
252 253 255 257 257 257 257 257 257 257 257 257 256 256 256 256 256 256 255 256 257 261 265 267 269 271 271 271 272 274 276 277 278 279 280 281 285 289 291 290 293 293 292 291 291 290 291 290 290 290 290 290 290 290 289 290 290 290 290 290 290 290 290 289 289 289 289 289 289 288 288 288 288 288 287 287 287 287 286 286 286 285 285 285 285
252 254 256 257 256 256 256 257 257 257 257 256 256 256 256 256 256 256 255 255 255 255 255 257 263 269 266 266 270 272 273 275 276 276 277 278 280 286 292 290 290 290 291 291 291 291 290 290 290 290 290 290 290 290 289 289 290 289 289 289 289 289 289 288 288 289 289 288 288 288 288 288 288 288 287 287 287 286 286 286 286 286 286 286 286
252 253 254 256 256 255 255 256 256 256 256 256 256 256 256 256 255 255 255 255 255 255 255 256 257 264 268 267 268 268 270 272 273 274 274 274 275 274 270 275 284 287 287 288 290 290 290 290 290 290 290 290 290 290 290 290 289 290 290 290 289 289 288 288 288 288 288 288 288 288 288 288 288 288 288 287 287 287 287 286 286 286 286 286 286
251 252 254 255 255 255 255 255 256 257 258 256 256 255 255 255 255 255 255 254 254 254 254 255 256 258 262 260 263 264 267 268 269 270 270 271 271 267 265 266 267 269 270 271 276 284 287 288 289 289 290 290 290 290 290 290 290 290 289 290 289 289 289 289 289 288 288 288 288 288 287 288 288 288 287 287 287 287 287 287 287 286 286 286 286
250 252 253 256 255 255 254 254 255 257 256 255 255 255 255 255 255 254 254 254 254 254 253 254 256 256 257 257 262 259 259 263 265 263 263 264 262 261 261 263 264 264 265 266 268 269 271 274 280 286 289 289 289 290 290 289 290 290 289 289 289 289 288 288 288 288 288 288 288 288 288 288 288 288 287 287 287 287 287 287 286 286 286 286 286
250 254 256 257 257 255 253 254 254 255 255 255 254 254 254 254 254 254 253 253 253 253 253 253 254 254 257 259 257 258 257 255 254 254 255 256 257 259 259 260 261 262 263 264 266 266 266 267 269 271 275 281 287 288 289 289 290 290 289 289 289 289 288 289 288 288 288 288 288 288 288 288 288 288 288 287 287 287 287 287 286 286 286 286 286
250 250 253 257 254 255 254 254 254 254 254 254 253 254 253 253 253 253 253 253 253 253 253 253 253 254 257 260 258 255 253 253 253 254 254 255 255 256 257 258 259 260 261 262 264 265 266 266 266 267 268 269 271 275 282 287 289 289 289 289 289 289 289 289 289 289 288 289 289 289 288 288 288 288 288 288 288 288 287 287 287 287 287 286 286
249 250 253 255 255 253 253 253 253 253 254 254 254 253 253 253 253 253 253 253 252 252 252 253 253 254 257 261 264 261 253 253 253 253 254 254 255 255 256 256 257 258 260 261 263 265 265 265 265 266 266 267 268 269 270 274 283 288 289 289 289 289 289 289 289 289 289 289 288 289 289 289 288 288 287 287 287 288 288 288 287 287 287 287 286
249 250 250 251 252 252 252 252 252 253 253 253 253 253 253 252 252 252 252 252 252 252 252 252 252 254 257 264 263 262 254 253 253 253 254 254 254 254 255 256 257 258 258 260 262 263 265 265 265 266 265 266 267 267 267 268 270 276 283 286 286 287 287 288 288 288 288 289 289 289 289 289 289 289 288 288 288 288 288 287 287 287 287 287 286
249 250 249 251 251 251 251 251 252 252 252 253 253 253 253 252 252 252 252 252 252 252 251 251 252 253 253 259 259 259 253 252 253 253 254 254 254 254 255 255 257 258 259 259 260 262 263 265 265 265 265 266 266 266 267 267 267 268 270 272 274 275 278 281 285 287 288 288 289 288 288 288 288 289 289 288 288 288 288 288 287 287 287 287 286
248 249 249 250 250 250 251 250 251 251 252 253 253 253 252 252 252 251 251 251 251 251 251 251 251 252 252 253 254 252 252 252 252 252 253 254 254 254 254 256 257 257 258 259 260 261 262 263 264 265 265 266 266 267 267 267 267 267 267 268 270 271 271 272 273 276 283 287 287 287 288 288 288 288 288 288 288 288 288 287 287 287 287 287 286
247 248 248 248 249 249 249 250 251 251 252 252 251 252 252 251 251 251 251 251 251 251 251 251 251 251 251 251 252 252 251 251 252 252 252 252 254 254 255 255 256 256 256 257 258 259 261 262 262 263 264 265 266 266 266 267 267 267 267 267 267 268 269 270 272 274 280 285 286 286 286 286 286 286 286 286 286 286 286 286 286 284 286 286 286
247 247 248 248 248 249 249 249 250 250 250 250 250 251 251 251 251 251 251 251 250 250 250 250 250 251 251 251 251 251 251 251 251 251 252 252 253 253 255 254 254 255 255 256 257 257 258 260 262 262 263 264 265 266 266 267 267 267 268 268 268 268 270 271 273 275 277 281 284 285 285 285 285 284 284 285 285 286 286 286 285 285 285 285 285
245 246 247 247 247 248 248 249 249 249 249 249 250 250 250 250 250 250 250 250 250 250 250 249 250 250 250 250 251 251 251 251 251 251 251 251 251 252 252 253 254 255 255 256 257 257 257 257 260 262 262 263 264 265 265 266 266 267 267 268 268 268 269 271 272 273 274 276 278 280 280 280 280 281 281 282 282 283 283 283 283 283 283 283 283
246 246 246 247 246 246 247 247 248 249 248 249 249 250 250 250 250 250 250 250 249 249 249 249 249 249 250 250 250 251 251 250 250 250 251 251 251 251 252 252 253 253 254 254 255 256 256 256 257 261 262 262 263 264 265 265 266 267 267 267 268 268 268 270 270 271 273 274 274 275 275 275 275 276 277 278 278 279 279 278 279 279 280 280 280
246 246 246 246 246 246 246 246 247 247 247 247 248 248 249 249 249 249 249 249 249 249 249 249 249 249 249 249 250 250 250 250 250 249 250 250 250 251 251 252 253 253 253 253 254 255 255 256 257 259 261 262 262 263 264 265 265 266 267 267 268 268 268 269 269 270 271 272 272 273 273 273 273 273 273 274 274 274 274 275 275 275 276 277 278
246 247 246 246 246 246 246 246 246 246 247 247 246 247 248 248 248 249 248 249 248 248 248 249 249 248 248 248 249 249 249 249 249 249 249 249 250 250 251 251 252 252 252 253 253 254 255 255 257 259 259 261 262 263 263 264 265 266 267 267 268 268 267 268 268 269 269 269 270 271 271 271 271 271 271 272 272 273 272 273 273 273 274 274 274
248 248 247 246 246 245 245 244 245 245 245 246 246 246 247 247 247 248 248 248 248 248 248 248 248 248 248 248 248 248 249 249 249 249 248 248 249 249 250 250 251 252 252 253 253 254 254 255 255 258 258 259 262 262 263 264 265 266 267 267 268 267 267 267 267 268 268 268 268 268 268 268 269 269 269 270 270 270 270 270 271 271 271 271 271
Wind_Speed
16 15 15 15 16 17 17 16 18 16 15 16 15 17 17 16 15 13 14 14 13 16 13 15 13 14 15 15 14 13 12 10 6 6 6 6 5 4 5 8 11 11 10 12 14 16 17 20 20 17 16 15 14 14 14 14 14 14 13 13 13 11 13 15 16 10 4 4 6 10 7 13 9 9 11 9 8 6 7 8 10 10 10 9 9
16 17 15 15 15 17 17 15 16 14 17 16 15 16 13 16 13 14 15 12 13 14 16 13 12 13 12 14 14 15 13 12 8 5 6 6 6 3 5 7 10 12 11 12 13 15 17 19 19 17 17 18 16 15 15 15 15 15 14 13 13 13 12 13 14 18 12 3 4 4 9 11 11 6 14 12 9 7 8 6 5 10 10 8 8
15 15 15 15 16 17 16 17 16 17 17 13 17 14 16 14 14 14 13 14 13 14 14 14 14 12 13 12 14 15 14 11 9 6 6 6 6 5 4 6 9 11 12 12 13 16 18 20 20 18 16 17 17 16 15 16 16 17 17 14 14 12 9 11 15 15 18 9 6 10 11 10 13 11 8 10 10 10 10 8 7 4 5 9 9
16 16 16 16 16 16 15 16 15 15 14 15 14 15 15 12 14 13 16 11 13 13 12 14 13 14 14 12 13 14 13 10 10 7 7 6 6 6 6 7 8 11 12 13 13 16 16 18 19 19 18 18 18 16 16 16 16 16 17 14 14 13 11 11 15 16 14 15 6 11 9 11 4 6 7 7 10 8 9 7 4 6 6 5 7
16 18 16 19 18 17 18 17 18 17 16 13 16 17 13 14 11 15 14 15 14 15 13 13 13 13 12 13 14 14 13 11 11 9 7 6 6 6 7 8 9 11 12 13 14 17 16 18 18 19 19 18 17 17 16 19 17 16 17 14 14 13 11 12 11 12 16 18 11 2 7 4 4 8 10 12 7 5 5 6 7 8 6 4 4
16 17 18 18 20 21 18 21 23 23 19 17 15 13 14 12 13 13 13 16 16 14 14 12 9 12 12 13 13 15 16 14 12 12 10 7 6 6 7 8 9 10 12 12 14 15 19 18 19 19 19 19 19 18 18 21 18 17 18 15 13 13 13 11 12 13 14 16 17 9 6 10 8 7 10 10 13 9 6 5 4 4 7 6 3
17 17 18 19 20 19 21 23 23 22 24 18 20 18 17 18 17 18 15 16 16 15 14 14 16 13 15 13 13 13 15 16 14 12 10 8 7 6 7 8 9 10 11 12 13 14 17 19 19 21 21 21 20 20 19 19 17 19 18 19 16 15 14 13 13 14 13 13 13 17 12 5 12 12 5 7 9 12 14 7 5 2 3 8 7
18 18 19 20 20 19 20 20 19 18 16 22 18 19 20 18 18 17 17 18 18 18 18 16 14 15 14 13 12 12 14 13 15 14 11 7 7 7 7 8 9 10 12 12 12 13 15 16 18 20 22 20 20 20 20 19 16 17 16 16 16 16 14 13 13 13 13 13 13 13 13 12 4 4 6 7 8 3 8 13 14 7 5 3 5
18 19 19 20 20 18 19 21 21 22 23 19 22 21 19 19 18 18 18 18 16 17 17 17 15 16 12 14 13 12 12 15 13 12 8 8 7 8 8 9 9 9 11 13 12 13 14 15 17 19 21 22 25 22 22 20 17 16 16 17 17 17 15 14 14 14 13 14 11 11 12 13 13 13 13 14 17 16 8 4 8 11 11 9 3
19 19 18 17 17 19 22 19 16 16 19 19 17 20 20 20 20 19 18 18 18 17 18 18 18 18 18 15 12 11 11 11 15 25 22 13 10 9 9 9 8 8 10 12 12 13 14 16 18 26 25 25 24 25 25 24 23 21 18 17 19 17 17 16 15 15 16 15 16 15 16 16 16 18 18 14 8 9 11 12 11 7 7 4 3
17 18 19 20 23 22 19 23 23 24 21 19 23 21 17 16 17 18 18 18 19 18 17 18 17 16 16 14 14 12 11 11 22 24 25 27 17 12 10 10 9 8 9 10 12 13 13 15 17 22 23 22 21 26 25 26 25 26 27 26 24 23 19 19 16 16 17 16 15 16 17 17 15 15 15 13 12 16 15 11 11 12 12 13 10
17 18 18 19 20 22 25 21 18 16 20 20 17 18 18 17 17 18 18 19 17 16 17 18 18 18 16 15 15 13 12 18 25 26 26 28 23 13 10 10 10 9 9 10 11 12 13 15 14 15 16 20 20 21 24 26 25 26 28 28 28 30 30 25 21 16 17 17 16 17 16 17 16 13 14 15 14 12 11 12 14 16 14 13 12
17 18 19 21 24 22 16 20 22 24 24 20 18 17 16 17 17 17 17 16 16 17 17 17 17 16 17 18 16 14 13 20 25 26 25 26 27 21 11 10 10 9 9 10 11 12 13 13 14 15 16 25 20 18 19 19 23 26 26 27 27 29 28 29 29 25 20 20 20 17 17 16 16 15 16 18 15 15 12 10 10 11 13 15 12
17 18 19 19 18 19 22 19 18 18 20 24 24 19 18 18 17 16 16 16 16 17 16 17 17 17 17 17 15 13 12 16 23 25 25 26 27 23 12 12 11 10 10 11 11 12 14 13 13 15 15 18 17 19 18 18 16 16 16 16 17 22 25 27 26 24 21 17 17 18 14 17 18 17 14 16 18 18 17 16 13 11 11 14 12
18 17 18 20 21 20 19 20 22 23 20 17 18 20 20 20 19 16 14 15 15 15 15 15 15 15 16 17 15 15 14 22 24 26 26 27 27 22 12 11 10 10 11 11 12 13 14 14 15 16 16 17 16 20 19 18 17 16 16 16 16 17 17 19 19 18 18 16 18 19 16 15 16 17 16 15 20 19 19 20 20 16 8 6 7
18 17 18 21 20 20 21 22 22 23 23 22 20 20 18 18 18 16 15 15 13 14 14 13 14 14 15 16 17 15 13 22 24 25 26 26 27 14 11 11 11 10 11 12 12 12 13 13 14 16 17 18 21 26 22 18 18 20 19 17 14 14 15 17 22 21 19 17 17 17 18 19 16 18 18 17 11 9 9 10 9 9 12 10 9
18 20 19 19 20 20 20 21 22 22 21 22 21 20 19 20 16 12 14 14 14 14 14 14 13 13 15 15 16 15 13 19 24 25 25 26 21 11 10 9 10 11 11 12 12 12 12 13 13 15 18 18 23 27 26 24 19 21 19 17 15 15 13 12 18 22 22 22 22 24 26 27 25 25 26 25 18 16 14 14 13 12 11 11 6
19 18 19 21 21 21 21 21 23 22 21 20 20 18 17 15 16 13 12 13 13 14 12 13 13 13 16 17 17 15 14 15 22 23 25 26 21 13 10 10 11 11 11 11 11 12 13 18 17 16 18 19 26 29 29 25 20 21 20 19 16 15 13 11 10 11 17 19 22 22 22 23 24 26 28 27 27 23 21 20 17 14 14 13 13
19 19 21 21 21 21 20 21 22 21 20 20 19 19 18 16 16 13 12 12 13 12 12 12 13 12 13 16 22 20 13 15 23 25 26 25 20 12 12 10 11 11 9 11 11 11 11 13 20 18 18 21 29 29 31 26 20 21 21 20 19 19 17 15 15 13 10 8 7 9 10 14 14 15 18 27 27 24 20 20 18 18 17 13 11
19 19 20 21 20 20 21 21 18 17 18 18 17 18 18 16 13 12 12 10 11 11 11 12 14 14 13 15 15 15 14 14 17 25 26 26 27 14 10 11 12 11 10 10 11 10 11 10 16 22 24 25 29 30 30 30 22 20 19 20 20 21 15 15 16 16 15 13 10 10 12 11 11 11 13 16 17 17 13 14 19 18 17 16 15
18 19 19 20 20 20 16 15 19 20 18 17 16 16 12 14 14 12 11 10 10 10 12 12 13 14 13 13 14 14 12 13 16 24 25 26 27 22 11 12 11 10 9 10 11 11 10 11 11 20 26 28 29 30 31 31 26 20 21 21 22 20 18 15 17 20 15 13 13 13 12 13 14 14 15 15 14 13 11 11 13 15 17 17 16
18 18 20 19 20 21 22 20 20 18 18 19 21 19 18 16 15 15 10 9 11 12 12 12 12 12 13 13 13 13 14 20 16 21 25 25 26 26 14 11 11 9 11 11 12 11 11 10 12 19 27 30 32 32 32 31 30 19 22 23 22 24 20 16 14 13 12 12 11 11 12 13 13 13 15 16 16 17 15 13 14 15 15 18 21
18 19 18 18 20 22 21 22 21 17 18 20 21 20 17 16 16 15 13 10 10 11 12 11 11 12 12 11 11 11 11 11 17 13 16 20 23 24 24 16 18 13 12 13 13 12 10 11 12 21 26 29 30 31 31 33 28 21 26 21 24 29 23 14 14 14 13 13 13 13 13 13 13 13 13 14 13 14 13 11 13 13 12 12 13
17 18 17 18 20 20 22 22 18 17 19 19 20 18 18 18 18 15 15 9 8 9 9 9 10 11 10 9 9 9 9 9 12 17 15 20 21 23 24 26 24 16 14 13 12 10 9 11 13 21 26 28 30 30 30 30 23 26 23 23 26 25 16 15 15 16 15 14 15 15 15 14 14 14 14 15 14 14 14 12 12 14 12 10 9
17 18 19 19 19 18 20 20 19 18 18 18 19 17 19 18 17 16 15 13 8 8 9 9 10 10 9 9 8 9 9 10 10 14 19 20 23 24 26 28 27 26 18 14 11 10 13 17 20 23 25 27 29 29 27 30 30 25 25 25 21 13 14 15 16 15 16 17 17 16 15 15 15 14 12 10 10 10 10 9 9 9 6 4 4
18 19 18 18 19 19 21 21 19 18 19 17 16 14 16 17 15 16 15 14 15 15 15 12 10 9 9 10 10 10 9 9 10 11 12 15 17 22 25 26 26 25 24 16 17 18 18 19 22 24 24 23 21 18 15 18 25 25 25 24 15 15 14 14 15 17 19 18 17 16 14 11 9 10 12 12 13 15 15 14 12 11 9 8 7
17 16 18 18 17 18 19 17 19 17 16 16 15 13 15 14 15 15 14 15 15 15 16 17 14 8 8 9 9 10 10 9 9 9 9 9 9 11 14 16 22 22 17 15 15 13 15 17 15 19 17 23 23 22 22 22 18 15 13 14 14 15 15 15 17 18 17 14 13 11 10 10 10 11 12 14 15 14 14 15 14 13 12 10 11
16 16 18 16 15 16 17 22 21 17 17 14 16 17 15 16 16 15 15 16 16 16 16 16 15 14 12 9 8 9 9 8 7 8 8 8 8 9 9 10 10 11 12 13 12 12 13 15 18 15 15 15 15 12 12 11 12 12 12 12 12 13 16 19 16 12 11 12 11 10 10 12 14 15 14 14 14 13 13 14 14 13 13 12 10
15 15 15 14 15 15 15 16 16 17 18 17 13 11 14 16 16 16 15 13 14 14 15 15 15 14 11 10 12 11 9 9 8 6 7 10 10 8 8 9 10 11 14 16 12 11 11 12 11 13 13 14 12 12 11 12 12 14 15 14 12 12 11 9 12 13 13 12 14 15 15 15 14 12 13 13 13 13 13 12 11 12 11 13 16
14 14 13 14 14 16 16 16 16 16 16 18 18 16 17 21 18 15 15 25 30 29 24 16 16 13 12 11 11 11 12 11 15 18 19 19 19 18 15 14 15 12 14 20 14 11 12 12 12 14 14 14 15 14 14 14 15 15 14 16 15 14 14 14 15 13 11 12 12 12 12 13 13 14 14 14 12 10 12 15 13 13 14 16 15
11 12 13 13 15 15 14 16 16 14 15 17 17 19 19 20 24 26 27 28 28 32 30 31 30 28 20 14 16 22 23 24 20 16 18 18 18 16 16 17 17 18 20 16 13 12 12 13 13 13 14 14 14 14 14 14 15 15 14 14 13 16 17 15 13 11 12 12 11 12 13 14 15 15 15 14 13 12 10 10 10 13 14 15 14
11 12 12 13 15 15 13 14 15 15 15 15 17 16 17 18 20 28 33 29 30 32 32 34 33 32 33 27 21 14 21 24 25 20 13 13 14 14 14 15 16 19 21 22 13 12 13 13 13 13 13 14 14 13 14 14 14 14 14 14 14 14 15 16 15 14 13 12 13 13 13 14 14 15 14 13 13 12 12 13 13 14 13 11 13
11 12 12 13 13 14 14 13 14 15 15 17 16 16 15 18 20 21 27 32 31 31 34 37 36 34 35 34 33 26 25 25 27 25 23 21 12 11 10 13 16 20 22 15 12 12 12 13 13 12 13 13 13 13 13 14 14 14 15 16 16 15 15 14 14 13 13 14 13 13 13 13 13 13 13 14 15 14 14 15 14 13 12 12 13
10 10 11 13 13 12 13 13 15 14 14 14 13 14 13 15 15 17 18 19 25 31 37 38 37 34 37 36 34 32 32 30 29 29 28 26 22 9 8 8 15 20 18 13 13 12 11 11 12 12 12 12 12 12 12 12 12 13 14 14 13 13 13 11 12 13 12 13 13 13 13 13 14 15 15 15 15 14 14 15 15 15 15 16 16
9 11 16 14 10 11 11 12 13 13 13 14 14 14 14 14 14 15 16 16 16 16 15 21 28 32 30 27 35 35 33 33 32 32 34 32 29 18 4 7 10 10 10 7 7 8 10 10 10 11 11 11 12 13 13 13 13 13 13 12 11 10 11 13 14 14 13 13 13 12 13 14 15 14 16 16 15 15 16 16 15 17 17 16 14
9 9 9 10 10 9 10 10 11 11 14 13 12 13 13 13 15 14 14 14 14 15 15 16 13 18 34 36 42 36 35 33 31 35 35 36 33 31 16 12 9 6 5 2 3 8 7 7 8 8 9 9 10 10 11 13 13 13 12 12 13 13 13 13 13 13 13 13 14 14 13 12 12 12 12 14 18 19 16 16 16 16 16 15 15
8 9 9 9 9 8 9 10 10 13 15 13 12 12 12 12 13 12 13 12 15 13 13 15 16 16 26 22 35 33 36 29 33 38 36 35 38 25 14 12 11 10 12 11 11 9 4 3 4 5 7 8 8 9 9 11 11 12 12 13 13 14 14 14 14 13 13 12 12 12 12 13 13 13 13 15 15 14 14 15 16 16 16 17 16
7 8 8 10 8 9 10 10 12 14 12 12 11 11 11 12 13 13 13 13 16 15 15 14 17 13 19 19 31 22 19 27 42 37 33 31 24 18 16 13 13 12 11 11 12 10 9 9 9 4 3 6 7 7 7 8 9 11 12 12 13 13 17 16 17 16 15 14 14 14 13 12 11 12 12 13 14 14 14 14 13 13 13 14 14
7 12 17 18 13 10 8 10 11 11 12 12 11 13 14 13 13 13 13 12 12 14 14 12 12 14 15 18 19 23 24 23 18 17 16 14 13 13 12 12 12 12 12 11 11 12 10 10 9 9 9 6 3 4 6 7 7 8 9 10 11 11 13 12 14 14 14 14 13 13 13 13 13 13 13 13 13 13 12 12 12 13 13 13 14
8 7 10 17 10 11 10 10 9 10 11 11 14 13 12 13 13 12 13 13 12 14 11 12 16 15 14 20 20 18 16 13 12 12 12 15 16 14 14 14 14 13 12 11 10 10 11 10 9 10 10 9 9 8 6 2 7 7 7 8 9 11 13 14 14 14 14 14 14 14 14 14 13 13 13 13 14 14 15 15 15 15 15 15 16
6 7 7 10 12 9 8 9 10 11 10 11 11 12 14 13 12 12 11 12 12 12 12 12 14 15 18 26 34 28 12 11 12 10 12 13 12 12 13 12 13 12 12 11 10 11 12 10 10 10 11 10 8 11 8 9 6 3 6 7 7 7 8 10 11 13 13 13 13 13 13 13 14 14 15 15 14 13 12 12 12 12 13 13 14
7 6 7 7 9 8 8 10 9 10 9 10 10 11 11 12 12 11 12 12 12 12 12 11 11 13 21 38 34 34 20 12 10 13 10 11 11 12 12 13 13 12 11 11 11 11 11 13 12 11 10 10 10 9 11 13 9 9 6 5 4 5 6 6 7 8 9 10 11 12 13 13 14 15 16 14 13 12 12 13 13 13 12 12 12
6 5 6 7 7 7 8 8 8 9 10 10 10 10 11 10 10 11 11 11 11 12 11 12 13 11 15 27 29 30 19 16 11 14 14 17 12 13 16 23 14 13 13 11 9 12 12 12 13 12 12 12 12 11 10 9 8 9 10 8 7 8 6 4 3 4 6 7 9 10 10 10 11 11 11 11 12 13 13 13 12 11 12 12 12
5 6 7 6 6 5 7 7 7 8 8 9 9 9 10 10 10 11 10 10 11 11 10 11 11 12 12 15 18 16 15 14 14 13 12 13 12 10 14 16 15 16 15 14 14 13 13 13 13 13 13 12 12 13 12 11 10 10 9 8 7 8 7 5 5 4 0 5 5 5 6 6 8 8 7 8 9 10 11 11 11 11 11 11 11
5 6 6 7 7 7 7 7 7 7 9 8 7 8 9 9 10 9 9 9 10 11 10 10 11 11 12 13 13 14 13 12 14 12 14 14 13 15 16 16 15 14 12 10 13 15 14 14 14 14 15 13 13 13 13 12 11 10 10 7 6 8 7 8 6 4 3 4 7 6 6 6 7 6 6 7 8 9 9 9 10 9 10 9 11
4 5 7 6 7 8 7 7 8 7 7 7 8 8 9 8 9 9 10 10 10 10 10 11 10 11 11 11 11 12 12 11 11 12 12 12 13 13 15 13 11 11 10 10 11 11 12 12 13 14 14 14 14 13 12 12 12 12 11 11 9 8 6 6 6 6 6 5 5 6 6 6 6 6 7 7 7 7 7 7 7 8 9 9 10
3 4 4 6 6 7 7 7 6 7 7 7 7 8 8 8 8 8 10 11 10 10 10 11 10 10 10 10 10 11 11 11 10 11 11 11 10 10 10 11 13 17 15 13 15 14 13 12 13 13 14 13 13 14 13 12 12 12 12 12 12 12 10 8 8 8 8 7 6 6 6 6 6 6 6 6 6 6 6 7 7 9 8 8 8
3 4 4 5 4 5 6 6 7 7 7 7 7 7 7 7 8 8 7 7 9 8 7 9 9 9 10 10 10 10 10 10 10 10 10 10 11 11 11 11 11 10 10 13 15 12 10 10 9 13 14 14 14 14 14 13 13 13 13 12 13 14 17 16 11 11 9 9 9 9 9 8 7 7 7 7 6 6 7 6 6 5 6 7 5
2 3 4 4 4 5 6 6 7 7 7 7 7 8 7 7 8 8 8 7 7 8 9 7 7 9 8 9 10 10 10 10 9 10 10 10 10 9 10 11 11 11 10 10 11 14 13 12 14 13 14 14 14 14 14 15 15 14 15 14 19 28 26 26 16 12 14 11 10 10 10 10 10 9 9 9 8 8 8 7 7 7 6 6 6
2 2 3 3 4 4 5 5 4 5 6 6 6 7 7 7 6 7 7 7 7 7 8 8 8 8 8 9 9 9 9 9 10 9 9 9 9 10 10 11 10 11 10 11 10 12 12 11 13 15 14 12 14 14 14 14 15 15 15 18 28 29 27 26 25 24 15 10 11 10 10 10 10 10 9 8 8 9 9 8 8 7 7 7 7
3 2 3 3 3 3 4 4 5 5 5 6 6 6 7 7 7 7 7 7 6 7 6 7 7 8 8 7 8 8 9 8 8 8 8 9 10 10 9 10 11 10 10 10 10 10 11 11 11 13 15 13 13 14 13 14 14 16 23 29 30 29 29 25 18 22 23 15 11 11 12 12 12 12 10 9 9 10 10 10 9 9 8 8 7
Wind_Direction
313 310 311 309 309 309 308 309 309 304 300 300 298 300 298 296 292 291 290 289 296 296 295 295 295 298 303 305 300 285 269 264 244 229 241 253 251 258 279 282 282 279 269 263 255 224 192 181 181 178 172 174 178 173 172 170 168 171 173 176 173 169 170 167 161 134 69 64 133 153 163 140 140 149 140 145 148 141 139 158 156 156 162 167 176
315 313 312 308 307 309 306 306 303 302 303 300 296 299 297 299 297 291 289 289 291 291 292 291 290 294 297 296 296 287 270 258 253 234 244 258 264 255 276 283 286 285 278 264 253 231 197 184 180 175 174 177 173 175 171 170 169 168 173 172 170 172 175 158 156 153 146 98 86 128 146 161 139 168 155 154 156 141 142 126 155 161 162 166 171
311 311 308 307 307 306 306 304 304 303 299 297 297 295 297 293 294 290 289 289 286 286 289 288 291 294 294 294 294 287 272 258 255 244 244 253 266 273 267 278 281 282 280 270 254 234 205 185 179 174 175 176 174 175 170 171 169 170 172 171 168 166 163 158 150 155 147 140 147 157 158 165 159 168 161 153 150 150 145 154 158 158 154 166 170
316 314 311 307 307 306 306 305 300 300 299 298 291 293 295 294 293 290 289 285 287 289 288 290 290 291 292 291 290 286 275 258 255 244 241 244 258 269 278 276 276 277 276 276 261 233 206 186 177 174 174 176 175 174 174 171 170 171 168 169 165 163 161 158 160 152 152 137 174 168 163 151 98 109 119 128 143 153 158 142 135 152 153 165 169
317 316 314 313 313 316 312 311 306 303 304 298 296 296 294 294 293 291 292 291 290 291 288 285 281 285 289 295 298 298 286 265 261 256 242 239 243 259 272 278 279 278 278 278 273 238 210 190 176 174 174 174 174 174 175 174 173 167 166 165 164 163 159 154 152 149 152 151 146 131 143 103 98 132 142 141 128 100 102 136 154 154 144 146 156
316 316 316 315 316 312 308 309 313 313 308 305 300 298 296 290 292 288 286 284 282 277 279 285 285 287 288 294 297 298 300 289 265 258 249 239 237 247 263 272 279 283 281 280 278 249 208 194 178 175 176 175 176 178 176 177 172 170 165 161 161 158 155 153 147 152 156 152 145 137 157 142 133 157 164 149 145 133 109 95 91 123 139 126 141
315 316 316 317 314 312 311 314 316 313 315 306 310 303 303 302 300 300 298 295 295 297 299 299 296 291 289 290 290 292 290 290 286 267 252 237 238 249 261 272 279 285 283 278 276 266 222 193 180 177 179 179 176 175 176 175 173 173 169 162 159 158 154 154 152 150 151 149 154 152 152 156 152 156 173 157 158 155 148 133 128 129 142 153 140
317 316 316 313 311 313 314 304 300 303 306 308 304 305 302 302 299 298 299 296 294 292 290 287 286 286 285 282 281 282 282 280 278 273 257 242 244 247 254 268 278 284 287 280 277 271 239 201 180 182 182 180 176 175 173 175 172 170 168 159 157 156 154 150 148 148 148 153 156 157 152 147 117 100 111 131 138 159 187 165 160 153 158 177 173
314 314 313 309 309 309 310 316 312 312 310 311 309 306 306 300 299 298 295 292 288 286 285 284 282 279 273 272 276 275 277 277 276 271 266 261 249 250 258 262 269 281 286 286 283 277 250 208 187 185 183 180 177 174 176 172 166 167 166 162 160 157 153 153 152 151 152 152 154 153 151 151 155 152 163 175 183 175 162 123 150 157 158 153 149
317 313 309 307 305 311 310 303 299 298 306 302 305 308 302 300 296 295 293 292 290 288 286 283 279 277 279 275 268 270 271 273 274 274 271 264 256 256 257 260 264 269 276 283 283 276 253 216 192 184 182 178 175 176 175 171 169 166 166 165 160 157 156 154 156 157 155 157 159 162 160 170 169 173 174 176 147 122 147 157 151 137 113 99 87
310 309 307 310 315 310 311 313 307 312 315 314 308 303 299 296 297 295 294 292 291 290 287 286 284 282 279 275 271 265 266 269 272 274 274 269 262 254 253 259 258 261 268 274 279 279 256 219 196 183 178 176 176 178 176 175 172 168 167 168 166 161 157 156 159 161 161 163 165 166 169 169 175 168 165 156 160 166 170 160 144 146 158 157 168
311 307 304 304 308 314 312 311 307 302 306 301 301 299 295 293 291 292 292 291 289 286 283 280 279 277 274 270 265 261 261 265 268 269 268 268 266 254 248 254 256 258 265 269 274 278 260 224 196 178 178 179 176 178 178 177 174 172 170 169 169 166 162 161 159 162 164 159 165 174 167 171 167 166 161 159 166 167 164 160 165 166 167 170 165
311 308 308 310 314 313 308 304 305 307 307 305 304 300 296 294 292 291 289 289 289 286 284 281 278 277 271 268 264 259 255 261 264 265 265 264 264 260 251 248 249 255 259 265 270 273 269 228 196 175 180 180 174 175 175 175 175 173 171 168 169 170 168 163 162 164 165 161 167 169 172 163 162 174 171 169 161 160 161 168 172 174 175 172 176
313 309 309 306 303 309 310 312 308 305 306 306 305 300 296 290 288 284 282 281 280 281 279 276 274 272 272 268 267 265 259 263 266 268 268 263 259 255 245 244 245 248 255 260 266 267 266 238 198 178 178 177 175 173 172 170 170 169 169 168 169 172 167 164 164 155 155 160 163 170 175 163 171 172 171 157 158 169 170 178 169 169 182 189 175
312 310 308 311 315 315 312 305 300 301 300 296 299 299 297 297 291 285 282 278 277 276 274 272 268 266 271 271 259 249 250 257 262 262 264 262 256 249 237 242 243 246 252 255 260 259 260 242 201 181 173 176 179 174 169 168 165 166 171 175 172 172 170 168 165 164 168 166 168 168 166 181 170 162 162 172 173 174 176 173 173 176 151 70 49
312 315 314 315 314 312 308 309 312 309 303 299 296 296 291 286 287 282 277 274 271 270 270 267 262 257 261 265 268 270 267 263 263 261 258 259 256 240 237 238 245 246 250 255 255 255 256 243 211 181 172 178 179 173 168 163 165 167 173 175 173 175 178 179 173 172 170 168 169 164 169 175 172 167 170 173 159 122 94 80 88 113 139 155 153
317 319 315 310 306 308 313 310 305 305 304 301 295 292 295 293 286 276 271 271 268 268 268 264 267 267 270 268 260 257 255 257 260 258 255 253 253 244 240 241 245 246 248 254 256 255 251 240 214 186 174 177 176 173 167 161 166 170 172 173 174 174 179 178 180 175 171 169 169 171 173 173 171 171 169 161 158 147 133 137 157 152 147 151 150
319 317 313 311 315 315 310 306 302 301 297 296 293 291 288 287 279 272 265 265 267 265 263 264 262 260 261 265 261 252 252 253 257 255 251 249 243 243 240 244 244 244 251 250 254 252 247 235 211 189 175 176 175 172 168 166 169 171 169 168 170 176 177 172 168 181 175 169 169 169 170 171 168 166 167 169 162 155 157 171 168 159 171 170 167
322 319 315 315 310 306 305 304 300 297 296 294 295 294 292 285 281 274 265 259 260 261 258 260 261 259 256 258 263 263 258 257 257 256 253 247 242 233 236 235 243 241 242 250 249 246 241 229 208 190 178 171 174 173 170 170 172 172 170 168 173 178 180 168 167 161 158 142 141 136 149 157 156 161 171 170 168 172 175 165 157 169 173 173 155
317 313 309 308 309 308 308 303 294 290 285 289 294 296 293 285 276 265 262 253 257 260 260 259 260 261 264 265 259 252 255 254 253 253 251 247 240 231 224 231 235 237 235 243 248 239 230 219 205 191 174 170 175 176 174 173 173 174 170 174 175 183 171 166 168 165 164 158 145 142 144 144 144 154 164 170 176 181 178 168 171 170 167 167 168
315 314 312 309 306 305 307 303 303 306 305 304 304 299 298 301 290 270 262 261 251 255 258 259 260 262 261 257 259 260 256 254 254 251 249 245 238 230 225 227 232 232 238 236 238 234 219 209 199 195 176 172 176 180 178 177 175 173 180 182 183 169 154 163 168 164 159 154 150 150 152 155 161 164 170 174 178 185 184 177 177 175 170 168 170
318 315 311 309 309 310 313 313 311 311 312 318 322 313 304 302 303 294 269 255 252 253 255 256 260 262 261 257 255 254 250 249 251 252 245 238 234 230 228 229 227 231 235 239 232 228 213 204 197 194 183 176 178 180 180 179 178 178 189 186 162 146 162 165 160 159 155 154 154 157 161 164 167 172 175 178 181 183 183 178 183 185 184 176 173
321 316 312 310 314 314 315 318 319 319 322 324 322 314 313 312 308 307 289 260 253 254 255 255 257 259 260 260 260 250 249 246 245 247 246 243 239 238 237 235 233 228 232 235 231 221 208 197 194 192 188 180 179 180 181 181 179 187 185 167 158 164 162 153 157 160 160 162 162 168 171 171 170 174 175 180 184 182 182 180 184 189 193 196 197
320 317 315 315 316 318 319 320 322 324 326 327 326 319 320 319 317 310 306 275 265 260 254 249 251 250 253 267 259 258 258 255 257 251 246 244 243 242 241 237 234 229 229 236 233 220 203 194 187 189 189 182 180 181 182 182 185 185 171 166 171 162 154 159 165 168 166 167 173 176 179 180 176 174 180 180 178 180 182 180 184 190 195 197 198
324 321 321 319 320 321 322 322 327 330 332 332 327 327 325 324 321 321 322 319 285 266 259 249 253 254 258 251 256 258 253 256 252 252 246 245 246 244 242 238 235 232 230 234 230 219 202 189 184 184 188 182 179 181 184 186 187 178 167 167 160 157 164 165 169 168 172 180 183 183 181 182 181 178 168 164 162 160 171 187 188 187 165 114 124
325 325 323 322 322 326 326 327 331 334 335 334 328 328 326 325 324 322 330 335 336 329 319 296 252 244 248 250 257 260 256 246 249 246 240 239 240 242 240 236 233 229 226 226 225 210 196 186 181 181 184 183 178 178 183 190 189 174 167 162 159 166 171 172 172 176 185 186 182 181 179 165 159 151 156 159 164 180 182 181 174 181 170 159 141
324 324 325 324 326 331 333 333 333 335 342 339 332 334 330 328 327 329 334 337 335 331 329 328 315 272 237 252 254 260 257 249 248 244 241 238 235 235 235 235 229 225 221 223 221 205 189 181 180 179 179 182 180 179 182 184 179 168 162 163 168 171 173 177 182 186 186 181 178 172 155 152 143 141 161 173 182 184 181 177 179 180 175 181 181
327 325 326 327 329 333 334 336 337 336 341 343 339 336 335 333 332 334 337 337 335 333 334 331 334 334 326 304 279 261 256 252 243 246 251 242 239 228 222 220 214 207 210 207 200 188 180 179 177 177 177 177 182 180 178 163 161 159 166 172 173 174 181 183 184 184 180 177 168 153 145 153 166 175 173 179 183 179 178 179 180 174 176 171 182
326 325 328 331 334 336 338 340 339 339 339 343 340 337 334 334 332 328 331 332 336 334 328 330 336 334 325 332 334 316 296 276 254 248 264 262 250 231 215 216 208 205 203 192 181 174 171 172 171 173 174 176 176 176 167 161 166 170 169 170 171 172 174 171 180 188 186 176 173 172 171 170 171 167 171 178 182 178 178 180 177 170 172 182 193
330 333 334 335 337 339 343 342 343 340 342 345 336 333 339 343 337 336 335 340 345 349 349 342 343 344 340 336 326 319 314 299 288 284 280 278 272 245 228 213 206 201 191 181 169 168 169 169 174 174 176 178 178 175 171 170 172 173 176 173 170 171 175 183 192 188 178 178 176 172 168 166 166 172 177 181 178 178 180 179 174 173 173 189 197
331 333 337 339 339 340 342 341 337 330 342 344 339 337 339 331 340 346 346 346 351 355 356 354 357 1 359 346 334 333 337 343 334 287 278 281 273 253 232 220 205 193 176 167 168 170 171 174 178 178 177 178 178 176 173 173 173 172 174 175 176 177 179 185 185 178 180 179 175 177 172 171 172 173 176 178 175 174 172 181 175 177 187 189 192
334 334 335 335 340 344 343 342 333 335 342 344 340 345 336 335 336 341 348 351 352 356 360 1 1 4 1 358 356 345 351 353 359 356 333 294 277 255 233 220 201 180 171 163 167 175 176 178 177 180 177 179 180 174 174 173 173 172 170 173 181 184 182 185 180 178 180 179 180 179 178 179 176 174 174 171 170 171 174 179 184 188 191 187 195
332 332 335 339 342 344 345 344 339 342 346 342 339 341 337 347 345 340 336 342 350 0 2 1 2 4 2 360 0 1 3 5 9 9 7 2 321 259 233 210 189 173 162 166 171 175 180 178 178 177 178 181 176 174 175 175 173 174 175 179 181 185 188 182 169 176 179 182 180 182 180 180 175 173 172 171 174 178 180 185 187 187 185 187 196
332 329 338 344 346 348 349 348 345 344 343 337 339 334 343 346 349 338 341 338 348 353 357 357 357 3 3 1 0 3 9 12 14 19 17 9 1 324 218 193 177 165 166 175 174 176 176 177 178 177 179 177 172 171 172 174 175 176 180 184 182 178 176 162 170 180 181 183 183 184 181 181 178 174 176 177 182 180 181 187 185 185 191 195 192
334 331 338 347 353 351 346 346 346 345 346 341 341 337 338 342 342 345 347 342 343 349 334 348 349 3 7 360 2 4 9 13 18 26 24 22 15 8 150 146 157 164 172 169 177 174 175 176 176 178 174 174 174 173 175 175 174 177 179 177 170 165 164 174 182 182 181 180 184 185 184 184 184 183 177 176 177 184 189 189 191 193 192 191 187
337 336 337 343 354 350 350 349 347 351 350 343 340 331 341 344 348 345 342 341 348 342 339 335 323 343 4 7 6 3 6 9 18 31 31 29 29 35 31 14 24 34 30 22 189 177 175 177 170 169 173 175 171 175 176 175 177 178 176 172 171 172 175 179 180 180 184 183 186 183 182 187 185 185 183 182 183 186 188 188 192 195 194 191 189
338 336 339 344 351 348 349 347 350 357 354 346 337 338 341 346 344 344 344 346 352 344 339 325 338 343 9 11 3 354 2 7 25 32 31 33 36 38 32 27 24 23 22 5 3 8 46 60 134 147 164 167 171 175 175 179 178 176 173 175 175 174 177 178 179 181 181 184 185 183 182 185 186 186 184 187 191 193 191 191 193 192 193 192 185
337 336 338 348 350 352 353 351 349 351 353 348 345 340 340 346 350 348 348 346 355 354 350 345 354 353 9 5 1 357 344 6 23 24 19 22 27 25 20 19 24 30 20 12 12 9 8 1 8 29 121 154 166 166 170 179 179 178 177 178 176 181 178 178 179 180 183 183 182 182 184 187 185 185 188 192 191 191 194 192 192 191 193 190 187
347 345 351 1 4 1 351 353 351 355 356 1 356 352 351 349 349 351 346 343 347 356 355 342 347 353 4 4 5 350 6 21 18 16 11 10 11 11 8 17 19 21 20 14 9 15 15 11 3 9 11 14 54 139 160 172 175 180 179 178 178 174 175 179 181 184 185 188 186 186 183 184 185 188 189 190 192 190 190 188 188 189 187 191 199
341 339 342 1 3 2 358 356 355 358 358 1 4 1 349 350 347 344 344 348 348 352 341 357 5 357 350 12 11 2 8 5 12 359 7 13 15 11 14 12 13 14 11 3 8 13 15 10 6 20 22 21 14 11 12 116 164 169 168 177 178 179 181 184 185 184 186 187 186 184 185 186 186 187 191 196 195 191 190 191 192 191 191 192 197
335 335 345 354 1 360 357 2 3 0 357 2 2 6 3 352 344 343 350 354 349 350 352 360 6 358 3 14 17 20 11 8 1 5 11 11 3 10 11 12 8 3 2 7 2 18 21 14 14 16 25 22 17 27 10 11 23 117 159 166 170 179 184 188 188 190 189 186 185 184 186 186 184 185 193 199 196 192 194 195 195 194 194 197 196
342 343 349 347 352 357 3 4 359 355 358 0 6 4 360 354 348 347 353 351 352 352 348 347 348 357 0 13 16 20 25 10 4 11 2 2 7 13 10 7 12 16 4 357 3 10 17 23 24 20 19 16 20 18 25 28 21 28 41 71 104 133 159 179 193 199 195 191 191 190 185 186 188 192 195 191 188 191 194 195 195 195 196 196 195
341 342 339 345 355 359 2 353 351 358 2 4 3 359 357 358 351 350 348 345 351 353 349 350 342 337 353 3 11 17 27 17 11 8 2 15 10 9 6 348 8 17 16 6 358 17 19 24 27 26 24 26 28 25 25 18 0 22 34 36 39 44 42 43 101 164 187 198 196 195 189 188 190 194 192 187 190 193 196 192 192 192 196 195 195
345 344 345 351 351 351 358 356 0 359 360 357 354 354 359 359 1 360 349 347 354 353 351 348 340 345 340 347 358 7 10 7 11 2 357 8 8 359 359 10 20 19 17 15 16 15 21 24 26 27 27 29 29 30 31 27 27 29 22 20 32 35 34 25 17 2 173 168 178 181 186 189 191 191 187 181 187 192 194 193 192 193 190 193 190
348 356 355 357 357 359 358 356 358 354 353 354 2 3 2 6 1 352 350 348 354 352 349 343 345 345 347 351 358 3 358 4 2 2 8 7 12 16 19 16 13 14 8 10 10 11 17 22 22 24 26 26 25 27 28 27 27 29 25 14 12 21 7 352 332 301 284 157 146 149 156 161 173 171 170 168 179 185 189 190 189 186 185 187 188
357 353 1 2 357 357 358 354 353 354 354 357 358 1 3 4 5 359 356 354 353 352 349 350 348 351 349 351 354 359 357 356 358 4 6 10 14 15 17 7 355 355 359 6 4 6 6 11 21 22 23 23 23 25 26 26 25 25 26 26 24 18 1 351 349 8 21 45 109 128 136 133 142 156 157 160 164 172 178 176 173 180 183 184 187
358 6 6 6 1 352 352 347 348 356 356 356 357 2 358 1 357 360 3 2 357 350 358 352 351 350 353 353 354 356 356 356 355 356 354 350 351 351 352 351 8 20 19 16 19 17 10 5 17 24 23 23 24 25 26 25 26 25 26 26 25 22 13 12 16 24 30 34 48 78 88 98 98 98 110 119 123 133 136 154 160 164 162 164 165
3 13 17 9 3 358 353 352 353 355 355 357 353 353 349 349 358 1 353 354 360 350 349 347 350 350 350 352 356 351 352 357 356 352 353 354 353 351 350 351 358 352 3 14 15 5 359 354 355 18 22 21 23 24 23 24 26 27 26 27 26 25 24 25 27 27 26 37 47 57 66 71 67 65 70 80 87 94 105 102 108 108 126 133 141
360 18 21 14 13 3 355 351 353 354 351 350 348 349 348 352 356 357 360 359 2 357 358 345 345 344 346 350 350 349 352 356 355 355 354 350 345 344 348 352 353 355 358 360 358 7 8 6 8 12 17 20 20 21 22 22 25 25 27 25 26 28 30 33 36 34 34 37 45 53 61 64 67 66 66 71 76 78 80 76 78 88 89 97 111
354 19 26 16 13 359 347 344 342 344 346 349 350 346 346 348 346 354 354 353 356 354 352 351 350 344 349 348 348 345 352 355 353 351 349 346 349 350 350 348 353 356 355 354 353 4 7 4 10 18 13 13 21 20 22 22 23 24 25 28 31 32 32 31 34 37 39 37 41 50 57 65 64 64 59 63 68 76 75 77 76 78 79 82 81
354 10 21 21 6 355 349 344 349 350 348 349 352 349 348 344 345 347 349 351 347 348 351 345 338 345 345 340 343 345 349 347 343 347 344 347 348 347 346 351 355 355 355 355 358 358 4 6 5 12 9 6 22 22 22 22 23 25 27 30 33 35 35 36 35 36 41 45 45 46 54 55 60 58 57 55 62 64 69 71 72 74 77 80 81